Torna al catalogo

STARLINK-32365

AttivoComunicazioniVLEO
NORAD 61625·PAYLOAD·🇺🇸 United States

Lanciato Oct 23, 2024 da Cape Canaveral Space Force Station

Loading…

Prossimi Passaggi (prossime 24 ore)

TLE

AggiornatoSource: CelesTrak SupGP

Epoca: Sep 14, 2026, 21:08 UTC

1 61625C 24191E   26257.88104167 -.00037546  00000+0 -13597-2 0  2574
2 61625  43.0008 165.8287 0001298 268.2945  82.0424 15.27602066    16

Traccia STARLINK-32365 in tempo reale con AllMySat

Download on the App Store